Houma, LA

5:35 PM CDT on May 23, 2018 (GMT -0500)
Houma-terrebonne

Weather History for KHUM - December, 2012

Change the Weather History Date:

Saturday, December 22, 2012

  Actual Average Record
Temperature  
Mean Temperature 44 °F -  
Max Temperature 60 °F 66 °F 82 °F (1971)
Min Temperature 28 °F 45 °F 22 °F (1989)
Degree Days  
Heating Degree Days 21    
Moisture  
Dew Point 36 °F    
Average Humidity 83    
Maximum Humidity 100    
Minimum Humidity 31    
Precipitation  
Precipitation 0.00 in - - ()
Sea Level Pressure  
Sea Level Pressure 30.34 in    
Wind  
Wind Speed 1 mph (ESE)    
Max Wind Speed 9 mph    
Max Gust Speed -    
Visibility 7 miles    
Events      
Averages and records for this station are not official NWS values.
T = Trace of Precipitation, MM = Missing Value Source: NWS Daily Summary

Daily Weather History Graph

Daily Weather History Graph

Search for Another Location

Airport or City:

Astronomy

Dec. 22, 2012 Rise Set
Actual Time 6:54 AM CST 5:09 PM CST
Civil Twilight 6:27 AM CST 5:35 PM CST
Nautical Twilight 5:58 AM CST 6:05 PM CST
Astronomical Twilight 5:28 AM CST 6:34 PM CST
Moon 1:14 PM CST (12/22) 1:53 AM CST (12/22)
Length of Visible Light 11h 07m
Length of Day
10h 14m
Waxing Gibbous, 74% of the Moon is Illuminated
Dec 22
Waxing Gibbous
Dec 28
Full
Jan 4
Last Quarter
Jan 11
New
Jan 18
First Quarter

Hourly Weather History & Observations

Time (CST) Temp. Windchill Dew Point Humidity Pressure Visibility Wind Dir Wind Speed Gust Speed Precip Events Conditions
12:15 AM 34.0 °F - 31.5 °F 90% 30.38 in 10.0 mi Calm Calm - N/A   Clear
12:35 AM 34.0 °F - 31.3 °F 90% 30.38 in 7.0 mi Calm Calm - N/A   Clear
12:55 AM 34.7 °F - 31.1 °F 87% 30.37 in 7.0 mi Calm Calm - N/A   Clear
1:35 AM 34.0 °F - 33.3 °F 97% 30.38 in 7.0 mi Calm Calm - N/A   Clear
1:55 AM 34.9 °F - 33.3 °F 94% 30.38 in 7.0 mi Calm Calm - N/A   Clear
2:15 AM 34.5 °F - 34.2 °F 99% 30.38 in 7.0 mi Calm Calm - N/A   Clear
2:35 AM 34.0 °F - 33.8 °F 99% 30.38 in 7.0 mi Calm Calm - N/A   Clear
2:55 AM 34.0 °F - 33.3 °F 97% 30.37 in 7.0 mi Calm Calm - N/A   Clear
3:15 AM 33.4 °F - 32.4 °F 96% 30.37 in 7.0 mi Calm Calm - N/A   Clear
3:35 AM 33.3 °F - 32.2 °F 96% 30.37 in 7.0 mi Calm Calm - N/A   Clear
3:55 AM 32.9 °F - 32.0 °F 96% 30.37 in 7.0 mi Calm Calm - N/A   Clear
4:15 AM 33.3 °F - 32.9 °F 99% 30.37 in 7.0 mi Calm Calm - N/A   Clear
4:35 AM 32.0 °F - 31.6 °F 99% 30.37 in 7.0 mi Calm Calm - N/A   Clear
4:55 AM 31.1 °F - 31.1 °F 100% 30.38 in 7.0 mi Calm Calm - N/A   Clear
5:50 AM 32.0 °F - 32.0 °F 100% 30.39 in 7.0 mi Calm Calm - N/A   Clear
6:50 AM 28.4 °F - 28.4 °F 100% 30.40 in 7.0 mi Calm Calm - N/A   Clear
7:50 AM 35.6 °F - 35.6 °F 100% 30.41 in 7.0 mi Calm Calm - N/A   Clear
8:50 AM 46.4 °F 43.5 °F 39.2 °F 76% 30.43 in 7.0 mi NE 5.8 mph - N/A   Clear
9:50 AM 51.8 °F - 39.2 °F 62% 30.44 in 7.0 mi ENE 5.8 mph - N/A   Clear
10:50 AM 55.4 °F - 33.8 °F 44% 30.41 in 7.0 mi NE 5.8 mph - N/A   Clear
11:50 AM 60.8 °F - 30.2 °F 31% 30.37 in 7.0 mi NE 6.9 mph - N/A   Clear
12:50 PM 60.8 °F - 33.8 °F 36% 30.35 in 7.0 mi East 6.9 mph - N/A   Clear
1:50 PM 60.8 °F - 39.2 °F 45% 30.31 in 7.0 mi SE 9.2 mph - N/A   Partly Cloudy
2:50 PM 60.8 °F - 37.4 °F 42% 30.30 in 7.0 mi South 9.2 mph - N/A   Partly Cloudy
4:50 PM 53.6 °F - 39.2 °F 58% 30.31 in 7.0 mi SSE 6.9 mph - N/A   Clear
5:50 PM 48.2 °F - 39.2 °F 71% 30.30 in 7.0 mi SSE 4.6 mph - N/A   Clear
6:15 PM 48.4 °F - 39.4 °F 71% 30.28 in 7.0 mi SE 4.6 mph - N/A   Clear
6:35 PM 46.6 °F - 39.6 °F 77% 30.29 in 10.0 mi SE 3.5 mph - N/A   Clear
6:50 PM 46.4 °F 44.3 °F 39.2 °F 76% 30.30 in 7.0 mi SE 4.6 mph - N/A   Clear
6:55 PM 47.1 °F - 39.9 °F 76% 30.30 in 7.0 mi Calm Calm - N/A   Clear
7:15 PM 43.3 °F - 39.4 °F 86% 30.30 in 10.0 mi Calm Calm - N/A   Clear
7:35 PM 43.0 °F - 39.2 °F 86% 30.30 in 10.0 mi Calm Calm - N/A   Clear
7:55 PM 44.1 °F - 40.1 °F 86% 30.30 in 7.0 mi Calm Calm - N/A   Clear
8:15 PM 42.6 °F - 39.7 °F 90% 30.30 in 7.0 mi Calm Calm - N/A   Clear
8:35 PM 42.8 °F - 40.1 °F 90% 30.30 in 7.0 mi Calm Calm - N/A   Clear
8:55 PM 42.3 °F - 40.1 °F 92% 30.30 in 7.0 mi Calm Calm - N/A   Clear
9:15 PM 41.2 °F - 39.7 °F 95% 30.30 in 7.0 mi Calm Calm - N/A   Clear
9:55 PM 41.5 °F - 40.3 °F 95% 30.28 in 7.0 mi Calm Calm - N/A   Clear
10:15 PM 41.2 °F 39.2 °F 40.1 °F 96% 30.27 in 5.0 mi East 3.5 mph - N/A   Clear
10:35 PM 40.8 °F - 39.7 °F 96% 30.26 in 7.0 mi Calm Calm - N/A   Clear
10:55 PM 43.9 °F - 40.1 °F 87% 30.27 in 7.0 mi Calm Calm - N/A   Clear
11:15 PM 43.7 °F - 40.3 °F 88% 30.25 in 7.0 mi Calm Calm - N/A   Clear
11:35 PM 42.6 °F - 40.5 °F 92% 30.24 in 7.0 mi Calm Calm - N/A   Clear
11:55 PM 43.7 °F - 40.8 °F 90% 30.24 in 7.0 mi Calm Calm - N/A   Clear